This demonstration page uses our WeatherBlox Daily Observations layout. Learn more.

Left ArrowRight Arrow

Hourly Observations for October 21, 2018

Temp ( °F °C ) Dew Point ( °F °C ) Humidity (%) Winds ( mph kmh ) Pressure ( in mb ) Visibility ( mi km ) Precip ( " mm )
12:51 am 00:51 Cloudy 64 17.8 42 5.6 45 45 E 9 15 30.08 1019 10 16 0.00 0.00
1:51 am 01:51 Mostly Cloudy 64 17.8 42 5.6 45 45 E 15 24 30.07 1018 10 16 0.00 0.00
2:51 am 02:51 Cloudy 64 17.8 43 6.1 46 46 E 13 20 30.06 1018 10 16 0.00 0.00
3:51 am 03:51 Cloudy 63 17.2 44 6.7 50 50 E 14 22 30.07 1018 10 16 0.00 0.00
4:51 am 04:51 Cloudy 64 17.8 45 7.2 50 50 E 15 24 30.07 1018 10 16 0.00 0.00
5:51 am 05:51 Cloudy 64 17.8 46 7.8 52 52 ESE 12 19 30.08 1019 10 16 0.00 0.00
6:51 am 06:51 Cloudy 61 16.1 50 10 67 67 ESE 8 13 30.09 1019 10 16 0.00 0.03
7:51 am 07:51 Cloudy 63 17.2 49 9.4 60 60 SE 9 15 30.10 1019 10 16 0.00 0.03
8:51 am 08:51 Cloudy 66 18.9 47 8.3 50 50 SE 15 24 30.10 1019 10 16 0.00 0.00
9:51 am 09:51 Cloudy 68 20 47 8.3 47 47 ESE 14 22 30.09 1019 10 16 0.00 0.00
10:51 am 10:51 Cloudy 70 21.1 47 8.3 44 44 SE 16 26 30.07 1018 10 16 0.00 0.00
11:51 am 11:51 Mostly Sunny 73 22.8 47 8.3 40 40 ESE 16 26 30.03 1017 10 16 0.00 0.00
12:51 pm 12:51 Partly Cloudy 75 23.9 47 8.3 37 37 ESE 13 20 29.99 1016 10 16 0.00 0.00
1:51 pm 13:51 Mostly Sunny 77 25 48 8.9 36 36 ESE 14 22 29.96 1015 10 16 0.00 0.00
2:51 pm 14:51 Sunny 75 23.9 48 8.9 39 39 ESE 7 11 29.94 1014 10 16 0.00 0.00
3:51 pm 15:51 Sunny 74 23.3 49 9.4 41 41 ESE 7 11 29.92 1013 10 16 0.00 0.00
4:51 pm 16:51 Mostly Sunny 73 22.8 50 10 44 44 SE 10 17 29.91 1013 10 16 0.00 0.00
5:04 pm 17:04 Mostly Cloudy with Nearby Thunderstorms 73 23 50 10 44 44 SE 8 13 29.85 1011 10 16 0.00 0.00
5:22 pm 17:22 Cloudy with Thunderstorms 72 22 52 11 50 50 Calm 29.88 1012 10 16 0.00 0.00
5:37 pm 17:37 Mostly Cloudy with Nearby Thunderstorms 69 20.6 57 13.9 66 66 W 7 11 29.91 1013 10 16 0.01 0.25
5:51 pm 17:51 Mostly Cloudy with Thunderstorms 67 19.4 58 14.4 73 73 NW 6 9 29.95 1014 10 16 0.01 0.25
6:27 pm 18:27 Cloudy with Nearby Thunderstorms 66 18.9 63 17.2 90 90 Calm 29.97 1015 10 16 0.03 0.76
6:51 pm 18:51 Cloudy with Nearby Thunderstorms 64 17.8 60 15.6 87 87 S 8 13 30.00 1016 9 14 0.05 1.27
7:15 pm 19:15 Cloudy with Rain 63 17.2 60 15.6 90 90 ESE 14 22 30.00 1016 6 10 0.05 1.27
7:51 pm 19:51 Cloudy with Light Rain 62 16.7 60 15.6 93 93 E 15 24 30.01 1016 10 16 0.08 2.03
8:51 pm 20:51 Clear 62 16.7 59 15 90 90 ESE 13 20 29.99 1016 10 16 0.00 0.03
9:51 pm 21:51 Clear 64 17.8 57 13.9 78 78 E 12 19 29.98 1015 10 16 0.00 0.00
10:51 pm 22:51 Clear 62 16.7 57 13.9 84 84 E 12 19 29.98 1015 10 16 0.00 0.00
11:51 pm 23:51 Clear 61 16.1 57 13.9 87 87 SE 8 13 29.98 1015 10 16 0.00 0.00

Powered by AerisWeather